[[{"header":{"parameterUnit":"m.s-1","parameterCategory":1,"la1":30.2991,"la2":30.254,"lo1":-89.0895,"lo2":-89.0444,"dy":0.0017,"dx":0.0017,"nx":28,"ny":28,"refTime":"2025-01-02T03:00:00:Z","depth":0,"parameterNumber":2,"parameterNumberName":"U-component_of_WINDS"},"data":[0,0,0,0,0,0,0,0,0,0,0,0,0,0,0,0,0,0,0,0,0,0,0,0,0,0,0,0,0,0,0,0,0,0,0,0,0,0,0,0,0,0,0,0,0,0,0,0,0,0,0,0,0,0,0,0,0,0,-1.0175,-1.0176,0,-1.0251,-1.0252,-1.0253,-1.0198,-1.0195,-1.0193,-1.019,-1.0274,-1.0278,-1.0283,0,0,0,0,0,0,0,0,0,0,0,0,0,-0.9986,-0.999,-1.0175,-1.0176,-1.0177,-1.0251,-1.0252,-1.0253,-1.0198,-1.0195,-1.0192,-1.0189,-1.0272,-1.0278,-1.0283,0,0,0,0,0,0,0,0,0,0,0,0,0,-1.0066,-0.9991,-1.0175,-1.0158,-1.0158,-1.0251,-1.0252,-1.0254,-1.0199,-1.0195,-1.0191,-1.0188,-1.0271,-1.0277,-1.0284,-1.04,0,0,-1.0305,-1.0308,0,0,0,0,0,0,0,0,-1.0062,-1.0073,-1.016,-1.016,-1.0159,-1.0211,-1.0216,-1.0303,-1.02,-1.0183,-1.019,-1.0186,-1.0256,-1.0264,-1.0287,-1.0404,-1.0407,-1.0305,-1.0309,-1.0312,-1.0314,0,0,0,0,0,0,0,-1.0056,-1.007,-1.0205,-1.0161,-1.0161,-1.0148,-1.0156,-1.0232,-1.024,-1.0184,-1.0181,-1.019,-1.0255,-1.028,-1.0288,-1.0408,-1.0305,-1.0311,-1.0315,-1.0318,-1.0625,-1.0629,0,0,0,0,0,0,-1.0052,-1.0065,-1.0203,-1.0208,-1.01,-1.0155,-1.0163,-1.0198,-1.0239,-1.0241,-1.0193,-1.0187,-1.0271,-1.028,-1.0291,-1.0431,-1.0312,-1.0319,-1.0322,-1.0621,-1.0626,-1.0631,0,0,0,0,0,0,-1.0048,-1.0064,-1.02,-1.0136,-1.0152,-1.0162,-1.0202,-1.0202,-1.0226,-1.0245,-1.0247,-1.0217,-1.0268,-1.0281,-1.0373,-1.0433,-1.0322,-1.0328,-1.0617,-1.0623,-1.0629,-1.071,0,0,0,0,0,0,-1.0042,-1.0063,-1.0107,-1.0137,-1.0155,-1.028,-1.0206,-1.0206,-1.0238,-1.0231,-1.0268,-1.0271,-1.0266,-1.0363,-1.038,-1.044,-1.0333,-1.0611,-1.0619,-1.0627,-1.0703,-1.0719,-1.0732,0,0,0,0,0,-1.0036,-1.0128,-1.0109,-1.0126,-1.0209,-1.0283,-1.0294,-1.0286,-1.0243,-1.0287,-1.0299,-1.027,-1.0423,-1.0373,-1.0391,-1.0455,-1.0608,-1.0617,-1.0626,-1.0696,-1.0715,-1.0732,0,0,0,0,0,0,-1.0106,-1.0131,-1.0111,-1.0215,-1.0247,-1.0274,-1.033,-1.0306,-1.0353,-1.0345,-1.0333,-1.0342,-1.0439,-1.0455,-1.0399,-1.0569,-1.0509,-1.0522,-1.0555,-1.0574,-1.0589,-1.0584,-1.0339,0,0,0,0,0,-1.0133,-1.019,-1.0209,-1.0299,-1.0316,-1.032,-1.0352,-1.0342,-1.0376,-1.039,-1.0408,-1.0444,-1.05,-1.0537,-1.059,-1.0703,-1.0712,-1.0756,-1.0771,-1.0783,-1.0796,-1.0858,-1.0879,-1.0661,-1.0661,-1.0661,0,0,-1.0191,-1.0212,-1.0248,-1.0313,-1.0337,-1.0398,-1.0332,-1.0398,-1.0444,-1.04,-1.0488,-1.0503,-1.0542,-1.0645,-1.0691,-1.0662,-1.0857,-1.0795,-1.0804,-1.0811,-1.087,-1.0891,-1.0909,-1.0667,-1.0666,-1.0665,0,0,-1.0328,-1.0347,-1.0425,-1.045,-1.0486,-1.0488,-1.0506,-1.0536,-1.0544,-1.0631,-1.06,-1.0654,-1.0751,-1.078,-1.0807,-1.0953,-1.0929,-1.097,-1.105,-1.1111,-1.1128,-1.1144,-1.1198,-1.1217,-1.0982,-1.0982,-1.0983,0,-1.0396,-1.0484,-1.0469,-1.0537,-1.0568,-1.0528,-1.0608,-1.0633,-1.0686,-1.0708,-1.0673,-1.0793,-1.0817,-1.0927,-1.0962,-1.0985,-1.1008,-1.0968,-1.1127,-1.1142,-1.1156,-1.1208,-1.1228,-1.0987,-1.0987,-1.0986,-1.0986,0,-1.0566,-1.0628,-1.0686,-1.0736,-1.0772,-1.0846,-1.0844,-1.0883,-1.0869,-1.0875,-1.0965,-1.0991,-1.1049,-1.1073,-1.1061,-1.1182,-1.1163,-1.1128,-1.1067,-1.1182,-1.1231,-1.125,-1.0995,-1.0993,-1.0991,-1.099,0,0,-1.0753,-1.0791,-1.0813,-1.0836,-1.0872,-1.092,-1.0992,-1.1046,-1.1081,-1.1118,-1.118,-1.1261,-1.1229,-1.126,-1.125,-1.1304,-1.142,-1.1262,-1.1263,-1.1293,-1.1557,-1.1586,-1.1609,-1.1402,-1.1406,-1.1409,-1.1555,0,-1.0893,-1.1017,-1.1005,-1.1124,-1.1182,-1.1145,-1.1208,-1.1238,-1.1245,-1.1296,-1.1304,-1.1363,-1.1314,-1.1332,-1.1383,-1.1395,-1.1474,-1.1384,-1.1463,-1.1466,-1.1457,-1.1634,-1.1665,-1.1802,-1.1574,-1.1577,-1.1579,0,-1.1074,-1.1115,-1.124,-1.1267,-1.1291,-1.1348,-1.1397,-1.1445,-1.1478,-1.148,-1.1514,-1.1495,-1.1569,-1.1504,-1.1608,-1.1547,-1.1578,-1.1589,-1.1594,-1.1604,-1.1532,-1.1652,-1.1845,-1.1867,-1.1608,-1.1606,-1.1604,0,-1.12,-1.1287,-1.1373,-1.1393,-1.1426,-1.1467,-1.1484,-1.1513,-1.1546,-1.1589,-1.1611,-1.1663,-1.1692,-1.1733,-1.1729,-1.1682,-1.1835,-1.1769,-1.1841,-1.1841,-1.1878,-1.1876,-1.2082,-1.1892,-1.1892,-1.1892,-1.1891,0,-1.136,-1.1439,-1.143,-1.1484,-1.1571,-1.1556,-1.1643,-1.1654,-1.168,-1.1737,-1.1706,-1.176,-1.175,-1.1804,-1.1801,-1.1889,-1.1901,-1.1906,-1.1906,-1.1911,-1.1911,-1.1934,-1.1925,-1.1897,-1.1896,-1.1895,-1.1894,0,-1.1518,-1.1515,-1.1607,-1.163,-1.1637,-1.1701,-1.1722,-1.1773,-1.1776,-1.1847,-1.1863,-1.1869,-1.1931,-1.193,-1.2001,-1.1999,-1.2107,-1.2093,-1.2096,-1.2094,-1.2167,-1.2161,-1.2397,-1.2428,-1.2216,-1.2218,-1.2219,0,-1.1622,-1.1681,-1.171,-1.1744,-1.1763,-1.1819,-1.1852,-1.1839,-1.1876,-1.1918,-1.1964,-1.2022,-1.2069,-1.217,-1.2182,-1.2236,-1.2226,-1.2304,-1.2234,-1.2238,-1.223,-1.2228,-1.2235,-1.232,-1.2322,-1.2324,-1.2325,0,-1.1808,-1.1803,-1.1851,-1.19,-1.194,-1.1978,-1.2012,-1.2042,-1.2034,-1.2076,-1.2138,-1.2174,-1.2245,-1.2304,-1.2356,-1.2374,-1.235,-1.2347,-1.2367,-1.2375,-1.2375,-1.2378,-1.2137,-1.2342,-1.2341,-1.2339,-1.2338,-1.2338,-1.1944,-1.1995,-1.2023,-1.2078,-1.2102,-1.2135,-1.2184,-1.2193,-1.2243,-1.23,-1.2289,-1.2359,-1.239,-1.2457,-1.2479,-1.2535,-1.2508,-1.2536,-1.2544,-1.2552,-1.2561,-1.2363,-1.2544,-1.2544,-1.2543,-1.2543,-1.2542,0,-1.213,-1.2146,-1.2196,-1.2245,-1.2288,-1.2257,-1.2294,-1.2334,-1.2395,-1.2425,-1.2471,-1.2543,-1.2599,-1.2615,-1.267,-1.2712,-1.2702,-1.2727,-1.2726,-1.2731,-1.2581,-1.256,-1.2734,-1.2734,-1.2734,-1.2734,-1.2734,-1.2734,-1.2233,-1.2318,-1.2316,-1.2414,-1.2429,-1.2496,-1.252,-1.255,-1.2575,-1.2655,-1.2702,-1.271,-1.2736,-1.2792,-1.2844,-1.2847,-1.287,-1.29,-1.2899,-1.276,-1.2741,-1.2723,-1.2703,-1.2905,-1.2905,-1.3045,-1.3046,-1.3047]},{"header":{"parameterUnit":"m.s-1","parameterCategory":1,"la1":30.2991,"la2":30.254,"lo1":-89.0895,"lo2":-89.0444,"dy":0.0017,"dx":0.0017,"nx":28,"ny":28,"refTime":"2025-01-02T03:00:00:Z","depth":0,"parameterNumber":3,"parameterNumberName":"V-component_of_WINDS"},"data":[0,0,0,0,0,0,0,0,0,0,0,0,0,0,0,0,0,0,0,0,0,0,0,0,0,0,0,0,0,0,0,0,0,0,0,0,0,0,0,0,0,0,0,0,0,0,0,0,0,0,0,0,0,0,0,0,0,0,-4.1932,-4.1933,0,-4.2015,-4.2015,-4.2016,-4.195,-4.1947,-4.1944,-4.1941,-4.2023,-4.2028,-4.2032,0,0,0,0,0,0,0,0,0,0,0,0,0,-4.1714,-4.1718,-4.1932,-4.1933,-4.1934,-4.2014,-4.2016,-4.2017,-4.195,-4.1947,-4.1943,-4.194,-4.2021,-4.2027,-4.2033,0,0,0,0,0,0,0,0,0,0,0,0,0,-4.1804,-4.172,-4.1932,-4.1911,-4.191,-4.2014,-4.2016,-4.2017,-4.1951,-4.1947,-4.1942,-4.1939,-4.202,-4.2027,-4.2034,-4.2163,0,0,-4.2056,-4.2059,0,0,0,0,0,0,0,0,-4.1799,-4.1812,-4.1913,-4.1912,-4.1911,-4.1968,-4.1968,-4.2066,-4.1952,-4.1935,-4.1941,-4.1936,-4.2008,-4.2016,-4.204,-4.2166,-4.217,-4.2056,-4.2061,-4.2064,-4.2066,0,0,0,0,0,0,0,-4.1793,-4.1808,-4.1965,-4.1914,-4.1914,-4.1896,-4.1904,-4.1987,-4.1994,-4.1936,-4.1932,-4.1943,-4.2007,-4.2034,-4.2042,-4.2171,-4.2056,-4.2062,-4.2067,-4.207,-4.2405,-4.241,0,0,0,0,0,0,-4.1789,-4.1803,-4.1962,-4.1967,-4.1844,-4.1903,-4.1912,-4.1954,-4.1993,-4.1995,-4.1946,-4.1939,-4.2023,-4.2033,-4.2044,-4.2197,-4.2064,-4.207,-4.2075,-4.2401,-4.2406,-4.2411,0,0,0,0,0,0,-4.1785,-4.1804,-4.1959,-4.1884,-4.1902,-4.1912,-4.1959,-4.1958,-4.1985,-4.2,-4.2001,-4.1973,-4.202,-4.2034,-4.2134,-4.2199,-4.2074,-4.208,-4.2395,-4.2403,-4.2409,-4.2505,0,0,0,0,0,0,-4.1779,-4.1803,-4.1853,-4.1886,-4.1907,-4.2048,-4.1963,-4.1962,-4.1998,-4.1989,-4.2025,-4.2027,-4.2018,-4.2123,-4.2141,-4.2207,-4.2086,-4.239,-4.2399,-4.2407,-4.2496,-4.2514,-4.253,0,0,0,0,0,-4.1771,-4.1876,-4.1855,-4.1875,-4.1969,-4.2052,-4.2064,-4.2052,-4.2003,-4.2053,-4.2063,-4.2026,-4.2189,-4.2134,-4.2153,-4.2222,-4.2385,-4.2396,-4.2406,-4.2488,-4.2511,-4.2529,0,0,0,0,0,0,-4.185,-4.188,-4.1858,-4.1976,-4.2012,-4.2041,-4.2103,-4.2076,-4.2126,-4.2116,-4.2098,-4.2107,-4.2211,-4.2226,-4.2165,-4.2348,-4.2279,-4.2294,-4.2335,-4.2356,-4.2373,-4.2367,-4.2092,0,0,0,0,0,-4.1881,-4.1946,-4.1969,-4.2071,-4.2091,-4.2094,-4.2129,-4.2117,-4.2153,-4.2168,-4.2185,-4.222,-4.2279,-4.2318,-4.2374,-4.2497,-4.2504,-4.2554,-4.2571,-4.2585,-4.2598,-4.2664,-4.2686,-4.2446,-4.2445,-4.2445,0,0,-4.1946,-4.1971,-4.2013,-4.2088,-4.2114,-4.2181,-4.2107,-4.2181,-4.2231,-4.2178,-4.2274,-4.2287,-4.2325,-4.2438,-4.2488,-4.2453,-4.2666,-4.2598,-4.2609,-4.2615,-4.2677,-4.27,-4.272,-4.2453,-4.2451,-4.245,0,0,-4.2099,-4.2125,-4.2213,-4.2241,-4.2282,-4.2283,-4.2304,-4.2337,-4.2344,-4.2439,-4.2401,-4.2459,-4.2561,-4.259,-4.2618,-4.2781,-4.2749,-4.2799,-4.2888,-4.2952,-4.2971,-4.2988,-4.3046,-4.3067,-4.2812,-4.2812,-4.2812,0,-4.2175,-4.2276,-4.2261,-4.2339,-4.2372,-4.2329,-4.2417,-4.2444,-4.2501,-4.2525,-4.2485,-4.2612,-4.2635,-4.2753,-4.2793,-4.2817,-4.2839,-4.2795,-4.297,-4.2986,-4.3002,-4.3057,-4.3078,-4.2818,-4.2817,-4.2816,-4.2816,0,-4.2366,-4.2437,-4.2503,-4.2559,-4.26,-4.2683,-4.268,-4.2723,-4.2706,-4.2712,-4.2808,-4.2834,-4.2893,-4.292,-4.2905,-4.3036,-4.3013,-4.2972,-4.2902,-4.3031,-4.3082,-4.3103,-4.2826,-4.2824,-4.2822,-4.2821,0,0,-4.2572,-4.2619,-4.2644,-4.2669,-4.271,-4.2764,-4.2843,-4.2902,-4.2939,-4.2979,-4.3045,-4.3132,-4.3095,-4.3126,-4.3113,-4.317,-4.3297,-4.3122,-4.3122,-4.3154,-4.3442,-4.3472,-4.3497,-4.3275,-4.3279,-4.3283,-4.3438,0,-4.2727,-4.2868,-4.2856,-4.2988,-4.3053,-4.3011,-4.3081,-4.3113,-4.312,-4.3174,-4.318,-4.3243,-4.3188,-4.3207,-4.3261,-4.327,-4.3354,-4.3259,-4.3336,-4.3339,-4.3328,-4.3524,-4.3557,-4.3703,-4.3458,-4.3462,-4.3464,0,-4.2927,-4.2975,-4.3114,-4.3145,-4.3171,-4.3234,-4.3287,-4.3339,-4.3374,-4.3375,-4.3411,-4.3388,-4.3467,-4.3395,-4.3503,-4.3438,-4.3469,-4.3478,-4.3483,-4.349,-4.341,-4.3536,-4.3749,-4.3771,-4.3496,-4.3493,-4.3491,0,-4.3063,-4.3162,-4.3258,-4.328,-4.3319,-4.3364,-4.3382,-4.3413,-4.3449,-4.3494,-4.3517,-4.3571,-4.36,-4.3641,-4.3633,-4.3582,-4.3744,-4.3671,-4.3746,-4.3746,-4.3782,-4.378,-4.4003,-4.3802,-4.3801,-4.3801,-4.38,0,-4.3238,-4.3324,-4.332,-4.3379,-4.3474,-4.3459,-4.3553,-4.3566,-4.3594,-4.3653,-4.362,-4.3677,-4.3663,-4.3718,-4.3712,-4.3802,-4.3816,-4.3818,-4.3815,-4.3821,-4.3821,-4.3841,-4.3831,-4.3807,-4.3805,-4.3804,-4.3803,0,-4.3407,-4.3407,-4.3508,-4.3537,-4.3546,-4.3615,-4.3638,-4.3693,-4.3696,-4.3772,-4.3789,-4.3794,-4.3858,-4.3854,-4.3925,-4.3921,-4.4032,-4.4018,-4.4021,-4.4018,-4.4093,-4.4086,-4.4337,-4.4369,-4.4147,-4.4149,-4.4151,0,-4.3518,-4.3584,-4.3619,-4.3657,-4.3678,-4.374,-4.3776,-4.3764,-4.3803,-4.3847,-4.3897,-4.3958,-4.4006,-4.4109,-4.4118,-4.4172,-4.4159,-4.4243,-4.4167,-4.417,-4.416,-4.4156,-4.4163,-4.4258,-4.4261,-4.4263,-4.4264,0,-4.3716,-4.3713,-4.3767,-4.3822,-4.3866,-4.3908,-4.3947,-4.3979,-4.3971,-4.4016,-4.4081,-4.4119,-4.4192,-4.4252,-4.4304,-4.432,-4.4291,-4.4288,-4.4308,-4.4315,-4.4315,-4.4316,-4.4062,-4.4283,-4.4281,-4.428,-4.4279,-4.4278,-4.3859,-4.3916,-4.3949,-4.4011,-4.4038,-4.4075,-4.4128,-4.4138,-4.4192,-4.4252,-4.424,-4.4313,-4.4345,-4.4412,-4.4433,-4.4489,-4.4459,-4.4488,-4.4496,-4.4503,-4.4512,-4.4306,-4.4499,-4.4498,-4.4498,-4.4497,-4.4497,0,-4.4056,-4.4075,-4.4132,-4.4187,-4.4235,-4.4203,-4.4244,-4.4286,-4.4351,-4.4384,-4.4432,-4.4506,-4.4564,-4.4578,-4.4633,-4.4675,-4.4663,-4.469,-4.4687,-4.4691,-4.4536,-4.4513,-4.4699,-4.4699,-4.4699,-4.4699,-4.4699,-4.4699,-4.4163,-4.4257,-4.4257,-4.4364,-4.4382,-4.4454,-4.448,-4.4513,-4.4539,-4.4623,-4.4672,-4.4681,-4.4706,-4.4762,-4.4814,-4.4816,-4.4838,-4.4871,-4.4868,-4.4723,-4.4702,-4.4683,-4.4661,-4.4876,-4.4876,-4.5019,-4.502,-4.5021]}]]